| time (UTC) | temp F | wind direction | speed MPH | gust MPH | rain 1hr in | rain 24hr in | rain mn in | humidity % | barometer mb |
| 20260504081541 | 65 | 76 | 5.0 | 9.0 | 0.00 | 0.00 | 0.00 | 59 | 1021.3 |
| 20260504050011 | 59 | 262 | 2.0 | 5.0 | 0.00 | 0.00 | 0.00 | 66 | 1020.2 |
| 20260504044510 | 58 | 230 | 3.0 | 7.0 | 0.00 | 0.00 | 0.00 | 67 | 1020.0 |
| 20260504043004 | 57 | 252 | 2.0 | 7.0 | 0.00 | 0.00 | 0.00 | 70 | 1019.9 |
| 20260504041505 | 55 | 284 | 1.0 | 7.0 | 0.00 | 0.00 | 0.00 | 72 | 1019.8 |
| 20260504040003 | 54 | 233 | 2.0 | 6.0 | 0.00 | 0.00 | 0.00 | 74 | 1019.8 |
| 20260504034503 | 54 | 241 | 2.0 | 6.0 | 0.00 | 0.00 | 0.00 | 75 | 1019.8 |
| 20260504033059 | 54 | 264 | 1.0 | 6.0 | 0.00 | 0.00 | 0.00 | 74 | 1019.7 |
| 20260504031559 | 54 | 226 | 1.0 | 5.0 | 0.00 | 0.00 | 0.00 | 74 | 1019.6 |
| 20260504030058 | 54 | 212 | 2.0 | 6.0 | 0.00 | 0.00 | 0.00 | 73 | 1019.6 |
| 20260504024558 | 54 | 260 | 2.0 | 6.0 | 0.00 | 0.00 | 0.00 | 73 | 1019.6 |
| 20260504023056 | 53 | 262 | 3.0 | 6.0 | 0.00 | 0.00 | 0.00 | 73 | 1019.7 |
| 20260504021554 | 53 | 201 | 2.0 | 8.0 | 0.00 | 0.00 | 0.00 | 73 | 1019.7 |
| 20260504020053 | 54 | 285 | 3.0 | 6.0 | 0.00 | 0.00 | 0.00 | 72 | 1019.6 |
| 20260504014602 | 54 | 275 | 3.0 | 7.0 | 0.00 | 0.00 | 0.00 | 71 | 1019.7 |
| 20260504013052 | 55 | 238 | 2.0 | 5.0 | 0.00 | 0.00 | 0.00 | 70 | 1019.7 |
| 20260504011552 | 55 | 263 | 1.0 | 5.0 | 0.00 | 0.00 | 0.00 | 71 | 1019.7 |
| 20260504010051 | 55 | 288 | 3.0 | 6.0 | 0.00 | 0.00 | 0.00 | 70 | 1019.7 |
| 20260504004547 | 54 | 287 | 1.0 | 5.0 | 0.00 | 0.00 | 0.00 | 71 | 1019.7 |
| 20260504003050 | 55 | 156 | 2.0 | 6.0 | 0.00 | 0.00 | 0.00 | 70 | 1019.7 |
| 20260504001544 | 55 | 264 | 2.0 | 5.0 | 0.00 | 0.00 | 0.00 | 70 | 1019.8 |
| 20260504000043 | 55 | 273 | 1.0 | 5.0 | 0.00 | 0.00 | 0.00 | 69 | 1019.8 |
| 20260503234546 | 55 | 198 | 0.0 | 4.0 | 0.00 | 0.00 | 0.00 | 69 | 1019.8 |
| 20260503233036 | 56 | 267 | 1.0 | 4.0 | 0.00 | 0.00 | 0.00 | 69 | 1020.0 |
| 20260503231536 | 56 | 254 | 0.0 | 5.0 | 0.00 | 0.00 | 0.00 | 69 | 1020.0 |
| 20260503230040 | 56 | 267 | 0.0 | 5.0 | 0.00 | 0.00 | 0.00 | 68 | 1020.1 |
| 20260503224534 | 56 | 257 | 1.0 | 4.0 | 0.00 | 0.00 | 0.00 | 68 | 1020.0 |
| 20260503223033 | 56 | 204 | 0.0 | 3.0 | 0.00 | 0.00 | 0.00 | 68 | 1020.1 |
| 20260503221530 | 57 | 239 | 0.0 | 4.0 | 0.00 | 0.00 | 0.00 | 67 | 1020.1 |
| 20260503220041 | 57 | 260 | 2.0 | 7.0 | 0.00 | 0.00 | 0.00 | 68 | 1020.0 |
| 20260503214524 | 59 | 264 | 3.0 | 6.0 | 0.00 | 0.00 | 0.00 | 65 | 1019.9 |
| 20260503213026 | 60 | 255 | 1.0 | 4.0 | 0.00 | 0.00 | 0.00 | 65 | 1019.8 |
| 20260503211524 | 59 | 211 | 2.0 | 3.0 | 0.00 | 0.00 | 0.00 | 66 | 1019.8 |
| 20260503210023 | 59 | 212 | 2.0 | 3.0 | 0.00 | 0.00 | 0.00 | 66 | 1019.7 |
| 20260503204522 | 60 | 283 | 1.0 | 3.0 | 0.00 | 0.00 | 0.00 | 63 | 1019.7 |
| 20260503203029 | 62 | 279 | 0.0 | 3.0 | 0.00 | 0.00 | 0.00 | 59 | 1019.6 |
| 20260503201521 | 63 | 213 | 0.0 | 1.0 | 0.00 | 0.00 | 0.00 | 57 | 1019.6 |
| 20260503200020 | 65 | 302 | 0.0 | 2.0 | 0.00 | 0.00 | 0.00 | 55 | 1019.5 |
| 20260503194522 | 66 | 60 | 0.0 | 2.0 | 0.00 | 0.00 | 0.00 | 53 | 1019.3 |
| 20260503193018 | 66 | 60 | 0.0 | 1.0 | 0.00 | 0.00 | 0.00 | 51 | 1019.2 |
| 20260503191521 | 66 | 59 | 0.0 | 0.0 | 0.00 | 0.00 | 0.00 | 50 | 1019.1 |
| 20260503190017 | 66 | 60 | 1.0 | 2.0 | 0.00 | 0.00 | 0.00 | 49 | 1019.0 |
| 20260503184517 | 66 | 60 | 0.0 | 1.0 | 0.00 | 0.00 | 0.00 | 48 | 1018.9 |
| 20260503183021 | 67 | 60 | 1.0 | 3.0 | 0.00 | 0.00 | 0.00 | 47 | 1018.8 |
| 20260503181516 | 67 | 335 | 0.0 | 1.0 | 0.00 | 0.00 | 0.00 | 46 | 1018.7 |
| 20260503180019 | 68 | 335 | 1.0 | 3.0 | 0.00 | 0.00 | 0.00 | 44 | 1018.7 |
| 20260503174515 | 68 | 359 | 2.0 | 4.0 | 0.00 | 0.00 | 0.00 | 43 | 1018.7 |
| 20260503173017 | 69 | 9 | 0.0 | 3.0 | 0.00 | 0.00 | 0.00 | 42 | 1018.6 |
| 20260503171514 | 69 | 94 | 0.0 | 4.0 | 0.00 | 0.00 | 0.00 | 45 | 1018.7 |